Regional Weather Roundup
Issued by NWS

Home | Current Version | Previous Version | Graphics & Text | Print | Product List | Glossary On
Versions: 1 2 3 4 5 6 7 8 9 10 11 12 13 14 15 16 17 18 19 20 21 22 23 24 25 26 27 28 29 30 31 32 33 34 35 36 37 38 39 40 41 42 43 44 45 46 47 48 49 50
000
ASUS44 KMEG 062000
RWRTN
TENNESSEE HOURLY STATE WEATHER ROUNDUP
NATIONAL WEATHER SERVICE MEMPHIS TN
300 PM CDT MON JUL 06 2015

TNZ002-004-019-021-049-052-054-088>092-062100-
WEST TENNESSEE

CITY           SKY/WX    TMP DP  RH WIND       PRES   REMARKS
MEMPHIS INTL   PTSUNNY   85  74  69 SW9       30.07F HX  92
NWS MEMPHIS      N/A     85 N/A N/A MISG        N/A
JACKSON        MOSUNNY   87  74  64 W10       30.06F HX  95
DYERSBURG        N/A    N/A N/A N/A MISG        N/A
PARIS          PTSUNNY   86  72  62 S7        30.05F HX  92
LEXINGTON      MOSUNNY   84  73  70 S8        30.06F HX  91
$$

TNZ008-025-027-028-033-062-065-066-062100-
NORTH MIDDLE TENNESSEE

CITY           SKY/WX    TMP DP  RH WIND       PRES   REMARKS
NASHVILLE      PTSUNNY   84  70  62 SW6       30.10F
CLARKSVILLE    PTSUNNY   84  70  62 SW8       30.06F
COOKEVILLE     MOSUNNY   88  73  62 W6        30.11F HX  96
CROSSVILLE     MOSUNNY   82  65  56 W9        30.17F
$$

TNZ061-075-076-078-094-096-097-062100-
SOUTH MIDDLE TENNESSEE

CITY           SKY/WX    TMP DP  RH WIND       PRES   REMARKS
FAYETTEVILLE   MOSUNNY   82  68  61 SW7       30.13F
TULLAHOMA      MOSUNNY   82  70  65 SW9       30.14F
WINCHESTER     MOSUNNY   82  70  65 W8        30.13F
SHELBYVILLE    MOSUNNY   84  73  70 SW8       30.12F HX  91
$$

TNZ017-018-042-046-047-062100-
NORTHEAST TENNESSEE

CITY           SKY/WX    TMP DP  RH WIND       PRES   REMARKS
TRI CITIES     MOSUNNY   82  63  52 W9        30.15R
ELIZABETHTON   PTCLDY    79  66  65 W7        30.15S
$$

TNZ012-013-036-069-073-074-062100-
CENTRAL EAST TENNESSEE

CITY           SKY/WX    TMP DP  RH WIND       PRES   REMARKS
KNOXVILLE      PTSUNNY   83  66  56 SW10      30.12F
OAK RIDGE      MOSUNNY   85  68  56 S7        30.12F
GATLINBURG     CLEAR     84  64  51 W7        30.12F
$$

TNZ083-085-099-062100-
SOUTHEAST TENNESSEE

CITY           SKY/WX    TMP DP  RH WIND       PRES   REMARKS
CHATTANOOGA    PTSUNNY   87  67  51 W5        30.10F HX  90
$$

SKY/WX REPORTED AS FAIR MEANS FEW OR NO CLOUDS BELOW
12 THOUSAND FEET.



USA.gov is the U.S. government's official web portal to all federal, state and local government web resources and services.